[[{"header":{"parameterUnit":"m.s-1","parameterCategory":1,"la1":30.2991,"la2":30.254,"lo1":-89.0895,"lo2":-89.0444,"dy":0.0017,"dx":0.0017,"nx":28,"ny":28,"refTime":"2023-11-07T03:00:00:Z","depth":0,"parameterNumber":2,"parameterNumberName":"U-component_of_WINDS"},"data":[0,0,0,0,0,0,0,0,0,0,0,0,0,0,0,0,0,0,0,0,0,0,0,0,0,0,0,0,0,0,0,0,0,0,0,0,0,0,0,0,0,0,0,0,0,0,0,0,0,0,0,0,0,0,0,0,0,0,-1.4322,-1.4322,0,-1.4344,-1.4344,-1.4344,-1.4323,-1.4322,-1.4321,-1.4321,-1.4342,-1.4344,-1.4345,0,0,0,0,0,0,0,0,0,0,0,0,0,-1.426,-1.4261,-1.4322,-1.4322,-1.4322,-1.4344,-1.4344,-1.4344,-1.4323,-1.4322,-1.4321,-1.432,-1.4342,-1.4343,-1.4345,0,0,0,0,0,0,0,0,0,0,0,0,0,-1.4285,-1.4262,-1.4322,-1.4315,-1.4314,-1.4343,-1.4344,-1.4344,-1.4323,-1.4322,-1.4321,-1.432,-1.4341,-1.4343,-1.4345,-1.4383,0,0,-1.4351,-1.4352,0,0,0,0,0,0,0,0,-1.4284,-1.4287,-1.4315,-1.4315,-1.4315,-1.4329,-1.433,-1.4357,-1.4324,-1.432,-1.4321,-1.4319,-1.4339,-1.4341,-1.4348,-1.4384,-1.4385,-1.4352,-1.4353,-1.4354,-1.4354,0,0,0,0,0,0,0,-1.4282,-1.4286,-1.433,-1.4316,-1.4315,-1.4309,-1.4312,-1.4335,-1.4336,-1.432,-1.4319,-1.4322,-1.4338,-1.4346,-1.4348,-1.4385,-1.4351,-1.4353,-1.4355,-1.4355,-1.4449,-1.445,0,0,0,0,0,0,-1.4281,-1.4285,-1.433,-1.4331,-1.4296,-1.4312,-1.4314,-1.4326,-1.4336,-1.4336,-1.4323,-1.432,-1.4343,-1.4346,-1.4349,-1.4391,-1.4354,-1.4356,-1.4357,-1.4447,-1.4449,-1.445,0,0,0,0,0,0,-1.428,-1.4285,-1.4329,-1.4308,-1.4313,-1.4314,-1.4328,-1.4327,-1.4334,-1.4338,-1.4338,-1.433,-1.4342,-1.4346,-1.4374,-1.4391,-1.4356,-1.4358,-1.4446,-1.4448,-1.445,-1.4476,0,0,0,0,0,0,-1.4278,-1.4285,-1.43,-1.4308,-1.4314,-1.4354,-1.4329,-1.4328,-1.4338,-1.4335,-1.4345,-1.4345,-1.4342,-1.4371,-1.4376,-1.4393,-1.436,-1.4444,-1.4447,-1.4449,-1.4474,-1.4479,-1.4483,0,0,0,0,0,-1.4276,-1.4307,-1.4301,-1.4306,-1.4333,-1.4355,-1.4358,-1.4354,-1.434,-1.4354,-1.4355,-1.4345,-1.4389,-1.4374,-1.4379,-1.4398,-1.4443,-1.4446,-1.4449,-1.4472,-1.4478,-1.4483,0,0,0,0,0,0,-1.4302,-1.4308,-1.4301,-1.4336,-1.4345,-1.4352,-1.437,-1.4361,-1.4374,-1.4372,-1.4365,-1.4367,-1.4396,-1.44,-1.4383,-1.4433,-1.4413,-1.4418,-1.4429,-1.4435,-1.4439,-1.4437,-1.4362,0,0,0,0,0,-1.4312,-1.433,-1.4334,-1.4365,-1.4369,-1.4369,-1.4379,-1.4374,-1.4383,-1.4387,-1.4391,-1.44,-1.4415,-1.4425,-1.444,-1.4475,-1.4475,-1.449,-1.4494,-1.4498,-1.4501,-1.4517,-1.4522,-1.446,-1.446,-1.446,0,0,-1.4332,-1.4338,-1.435,-1.437,-1.4376,-1.4394,-1.4372,-1.4393,-1.4405,-1.439,-1.4415,-1.4418,-1.4428,-1.4458,-1.4472,-1.4462,-1.4519,-1.4502,-1.4505,-1.4506,-1.452,-1.4526,-1.4531,-1.4462,-1.4461,-1.4461,0,0,-1.4377,-1.4385,-1.4409,-1.4415,-1.4425,-1.4424,-1.443,-1.4437,-1.4438,-1.4464,-1.4452,-1.4466,-1.4494,-1.45,-1.4507,-1.4552,-1.4542,-1.4557,-1.4581,-1.4596,-1.4601,-1.4605,-1.4619,-1.4624,-1.4561,-1.4561,-1.4561,0,-1.4401,-1.4428,-1.4423,-1.4443,-1.4451,-1.4437,-1.4461,-1.4467,-1.4482,-1.4487,-1.4476,-1.4509,-1.4514,-1.4544,-1.4555,-1.4562,-1.4567,-1.4555,-1.4601,-1.4605,-1.4609,-1.4622,-1.4627,-1.4562,-1.4562,-1.4562,-1.4562,0,-1.4455,-1.4474,-1.4492,-1.4505,-1.4515,-1.4537,-1.4534,-1.4545,-1.4539,-1.4539,-1.4564,-1.457,-1.4584,-1.4591,-1.4586,-1.462,-1.4613,-1.4602,-1.4582,-1.4617,-1.4628,-1.4633,-1.4565,-1.4564,-1.4564,-1.4563,0,0,-1.4518,-1.4526,-1.4532,-1.4536,-1.4545,-1.4559,-1.4579,-1.4593,-1.4601,-1.4611,-1.4626,-1.4649,-1.4638,-1.4646,-1.4641,-1.4655,-1.4686,-1.4641,-1.4641,-1.4647,-1.472,-1.4727,-1.4733,-1.468,-1.4681,-1.4682,-1.4719,0,-1.4561,-1.4596,-1.4591,-1.4624,-1.464,-1.4626,-1.4643,-1.465,-1.465,-1.4662,-1.4662,-1.4677,-1.4663,-1.4667,-1.468,-1.468,-1.4701,-1.4678,-1.4693,-1.4693,-1.4689,-1.474,-1.4747,-1.4782,-1.4724,-1.4724,-1.4725,0,-1.4617,-1.4627,-1.4662,-1.4665,-1.4671,-1.4687,-1.4697,-1.471,-1.4716,-1.4715,-1.4723,-1.4715,-1.4734,-1.4715,-1.4739,-1.4724,-1.473,-1.473,-1.4732,-1.4731,-1.471,-1.4738,-1.4793,-1.4797,-1.4733,-1.4732,-1.4732,0,-1.4655,-1.4678,-1.4701,-1.4705,-1.4711,-1.4722,-1.4724,-1.473,-1.4737,-1.4746,-1.475,-1.4762,-1.4768,-1.4776,-1.4771,-1.4759,-1.4796,-1.4777,-1.4794,-1.4794,-1.4801,-1.48,-1.4855,-1.4809,-1.4809,-1.4808,-1.4808,0,-1.4703,-1.4724,-1.4718,-1.4732,-1.4754,-1.4747,-1.477,-1.4771,-1.4775,-1.4788,-1.4777,-1.479,-1.4783,-1.4795,-1.4791,-1.481,-1.4814,-1.4812,-1.481,-1.4812,-1.4812,-1.4814,-1.4811,-1.481,-1.481,-1.4809,-1.4809,0,-1.475,-1.4747,-1.477,-1.4772,-1.4773,-1.479,-1.4791,-1.4803,-1.4802,-1.4818,-1.4822,-1.4819,-1.4832,-1.4828,-1.4842,-1.484,-1.4863,-1.486,-1.4861,-1.4859,-1.4875,-1.4872,-1.4932,-1.4938,-1.4889,-1.489,-1.489,0,-1.478,-1.4795,-1.4798,-1.4806,-1.4809,-1.4822,-1.4829,-1.4822,-1.483,-1.4837,-1.4848,-1.4859,-1.4868,-1.4888,-1.4888,-1.4898,-1.4893,-1.4913,-1.4894,-1.4894,-1.489,-1.4888,-1.4889,-1.4916,-1.4917,-1.4917,-1.4917,0,-1.4832,-1.4829,-1.4839,-1.4848,-1.4856,-1.4864,-1.487,-1.4877,-1.487,-1.4879,-1.4892,-1.4898,-1.4911,-1.4922,-1.4931,-1.4933,-1.4923,-1.4923,-1.4927,-1.4928,-1.4927,-1.4925,-1.4868,-1.4922,-1.4921,-1.4921,-1.4921,-1.4921,-1.4869,-1.4881,-1.4884,-1.4895,-1.4899,-1.4904,-1.4915,-1.4914,-1.4924,-1.4934,-1.493,-1.4943,-1.4947,-1.4957,-1.496,-1.497,-1.4962,-1.4969,-1.497,-1.4971,-1.4972,-1.4927,-1.4972,-1.4972,-1.4972,-1.4972,-1.4972,0,-1.4918,-1.4919,-1.493,-1.4937,-1.4946,-1.4936,-1.4942,-1.4949,-1.4961,-1.4965,-1.4973,-1.4986,-1.4996,-1.4995,-1.5004,-1.5012,-1.5008,-1.5014,-1.5013,-1.5013,-1.4979,-1.4974,-1.5017,-1.5017,-1.5017,-1.5017,-1.5017,-1.5017,-1.4945,-1.4963,-1.496,-1.498,-1.4981,-1.4993,-1.4997,-1.5001,-1.5004,-1.5018,-1.5026,-1.5026,-1.5027,-1.5036,-1.5044,-1.5043,-1.5046,-1.5054,-1.5051,-1.502,-1.5015,-1.5011,-1.5006,-1.5055,-1.5055,-1.5083,-1.5084,-1.5084]},{"header":{"parameterUnit":"m.s-1","parameterCategory":1,"la1":30.2991,"la2":30.254,"lo1":-89.0895,"lo2":-89.0444,"dy":0.0017,"dx":0.0017,"nx":28,"ny":28,"refTime":"2023-11-07T03:00:00:Z","depth":0,"parameterNumber":3,"parameterNumberName":"V-component_of_WINDS"},"data":[0,0,0,0,0,0,0,0,0,0,0,0,0,0,0,0,0,0,0,0,0,0,0,0,0,0,0,0,0,0,0,0,0,0,0,0,0,0,0,0,0,0,0,0,0,0,0,0,0,0,0,0,0,0,0,0,0,0,2.5317,2.5316,0,2.5269,2.5268,2.5268,2.5286,2.5287,2.5288,2.5289,2.5237,2.5235,2.5232,0,0,0,0,0,0,0,0,0,0,0,0,0,2.5423,2.5421,2.5317,2.5316,2.5316,2.5269,2.5268,2.5268,2.5286,2.5287,2.5288,2.529,2.5238,2.5235,2.5232,0,0,0,0,0,0,0,0,0,0,0,0,0,2.5376,2.5421,2.5317,2.5319,2.5319,2.5269,2.5268,2.5268,2.5285,2.5287,2.5289,2.529,2.5239,2.5235,2.5232,2.5176,0,0,2.5221,2.5219,0,0,0,0,0,0,0,0,2.5379,2.5372,2.5319,2.5319,2.5318,2.5285,2.5287,2.5237,2.5285,2.5298,2.5289,2.5291,2.5252,2.5247,2.5234,2.5174,2.5171,2.522,2.5218,2.5217,2.5216,0,0,0,0,0,0,0,2.5382,2.5375,2.5298,2.5319,2.5318,2.5322,2.5318,2.5277,2.5266,2.5297,2.5298,2.5293,2.5252,2.5238,2.5233,2.5171,2.522,2.5217,2.5215,2.5214,2.5066,2.5064,0,0,0,0,0,0,2.5386,2.5377,2.5299,2.5296,2.5354,2.5319,2.5314,2.5294,2.5266,2.5264,2.5291,2.5294,2.5243,2.5237,2.5231,2.5167,2.5217,2.5213,2.5211,2.5068,2.5066,2.5064,0,0,0,0,0,0,2.5388,2.5379,2.5301,2.5337,2.5328,2.5316,2.5293,2.5292,2.5278,2.5262,2.526,2.5279,2.5244,2.5237,2.5191,2.5165,2.5212,2.5208,2.507,2.5067,2.5065,2.5036,0,0,0,0,0,0,2.5391,2.5379,2.5358,2.5337,2.5326,2.5261,2.5292,2.529,2.5273,2.5275,2.525,2.5248,2.5245,2.5196,2.5187,2.5161,2.5205,2.5072,2.5069,2.5065,2.5039,2.5033,2.5027,0,0,0,0,0,2.5395,2.535,2.5357,2.5347,2.5299,2.526,2.5253,2.5252,2.527,2.5249,2.5239,2.5248,2.517,2.5191,2.5181,2.5154,2.5074,2.507,2.5066,2.5042,2.5034,2.5027,0,0,0,0,0,0,2.5367,2.5347,2.5354,2.5301,2.5283,2.5263,2.5235,2.5243,2.5217,2.5221,2.522,2.5214,2.5167,2.5156,2.518,2.51,2.5124,2.5118,2.5109,2.5102,2.5096,2.51,2.5202,0,0,0,0,0,2.5355,2.5325,2.531,2.5265,2.5255,2.5247,2.523,2.5231,2.5211,2.5202,2.5189,2.5168,2.5139,2.512,2.5092,2.5038,2.5034,2.5014,2.5008,2.5003,2.4998,2.4972,2.4963,2.5051,2.5051,2.5051,0,0,2.5329,2.5315,2.5296,2.5259,2.5244,2.5214,2.524,2.5206,2.5184,2.5197,2.5154,2.5143,2.5121,2.5071,2.5049,2.506,2.4973,2.4998,2.4995,2.4992,2.4967,2.4958,2.4951,2.5048,2.5049,2.5049,0,0,2.5267,2.5252,2.5215,2.5201,2.5179,2.5175,2.5166,2.5146,2.514,2.5098,2.5108,2.5081,2.503,2.5015,2.5,2.4937,2.4945,2.4928,2.4896,2.487,2.4864,2.4857,2.4837,2.4829,2.4922,2.4922,2.4922,0,2.5237,2.5192,2.5194,2.5161,2.5145,2.5158,2.5121,2.5106,2.5076,2.5065,2.5079,2.5018,2.5003,2.4952,2.4937,2.4924,2.4915,2.493,2.4865,2.4858,2.4853,2.4833,2.4825,2.4921,2.4921,2.4921,2.4921,0,2.5158,2.5128,2.51,2.5073,2.5054,2.5019,2.5016,2.4997,2.5,2.4995,2.4953,2.4936,2.4907,2.4894,2.4896,2.4844,2.4853,2.4865,2.4889,2.4843,2.4824,2.4816,2.4918,2.4919,2.4919,2.492,0,0,2.5074,2.5052,2.5042,2.5032,2.5011,2.4987,2.4953,2.4926,2.4911,2.489,2.4863,2.4822,2.4835,2.4818,2.4819,2.4796,2.475,2.4812,2.4812,2.4803,2.4694,2.4686,2.4677,2.4756,2.4755,2.4753,2.4697,0,2.5012,2.4954,2.4956,2.4902,2.4875,2.4889,2.486,2.4844,2.4839,2.4815,2.4809,2.4781,2.4799,2.479,2.4768,2.476,2.4729,2.4764,2.4731,2.473,2.4737,2.4667,2.4656,2.4604,2.4689,2.4688,2.4687,0,2.493,2.4911,2.4854,2.4841,2.483,2.4804,2.4781,2.4758,2.4741,2.4739,2.4723,2.4729,2.4696,2.4721,2.4676,2.4701,2.4688,2.4682,2.468,2.4677,2.4706,2.4663,2.4587,2.4579,2.4676,2.4676,2.4677,0,2.4878,2.4836,2.4798,2.4789,2.4771,2.4753,2.4745,2.473,2.4715,2.4695,2.4686,2.4661,2.4648,2.463,2.4629,2.4648,2.4585,2.461,2.4583,2.4583,2.4569,2.457,2.4491,2.4559,2.4559,2.4559,2.4559,0,2.4808,2.4773,2.4775,2.4751,2.4714,2.4718,2.4681,2.4674,2.4662,2.4638,2.4647,2.4625,2.4625,2.4602,2.4601,2.4566,2.4559,2.4558,2.4558,2.4557,2.4558,2.4548,2.4553,2.4557,2.4558,2.4558,2.4558,0,2.4742,2.4741,2.4701,2.469,2.4686,2.4659,2.4649,2.4628,2.4625,2.4595,2.4588,2.4583,2.4557,2.4555,2.4524,2.4524,2.4481,2.4485,2.4487,2.4488,2.4463,2.4466,2.4375,2.4364,2.4439,2.4438,2.4437,0,2.4698,2.4672,2.4659,2.4645,2.4637,2.4612,2.4598,2.4602,2.4586,2.4568,2.4549,2.4524,2.4505,2.4463,2.4456,2.4434,2.4438,2.4408,2.4434,2.4435,2.4439,2.4441,2.444,2.4402,2.4402,2.4401,2.44,0,2.462,2.4623,2.4602,2.4582,2.4566,2.455,2.4535,2.4522,2.4524,2.4507,2.4482,2.4467,2.4437,2.4413,2.4392,2.4384,2.4393,2.4393,2.4386,2.4385,2.4388,2.4388,2.4475,2.4394,2.4395,2.4395,2.4396,2.4396,2.4565,2.4544,2.4533,2.4511,2.4501,2.4488,2.4468,2.4464,2.4443,2.4421,2.4424,2.4397,2.4384,2.4356,2.4347,2.4326,2.4336,2.4325,2.4322,2.432,2.4318,2.4391,2.4321,2.4322,2.4322,2.4322,2.4322,0,2.449,2.4484,2.4464,2.4445,2.4428,2.444,2.4425,2.441,2.4386,2.4374,2.4356,2.4328,2.4306,2.4299,2.4278,2.4263,2.4267,2.4257,2.4259,2.4257,2.4309,2.4318,2.4255,2.4255,2.4255,2.4255,2.4255,2.4255,2.4448,2.4415,2.4416,2.4379,2.4373,2.4348,2.4339,2.4327,2.4318,2.4288,2.427,2.4267,2.4257,2.4236,2.4217,2.4215,2.4208,2.4197,2.4197,2.4246,2.4253,2.4259,2.4268,2.4195,2.4195,2.4147,2.4147,2.4146]}]]